TimeEST,TemperatureF,Dew PointF,Humidity,Sea Level PressureIn,VisibilityMPH,Wind Direction,Wind SpeedMPH,Gust SpeedMPH,PrecipitationIn,Events,Conditions,WindDirDegrees,DateUTC
12:53 AM,51.1,45.0,80,30.03,10.0,Calm,Calm,-,N/A,,Overcast,0,2012-12-07 05:53:00
1:53 AM,52.0,45.0,77,30.02,10.0,Variable,3.5,-,N/A,,Overcast,0,2012-12-07 06:53:00
2:53 AM,52.0,45.0,77,30.03,10.0,SSW,3.5,-,N/A,,Overcast,200,2012-12-07 07:53:00
3:53 AM,51.1,46.0,83,30.03,9.0,South,3.5,-,0.02,Rain,Light Rain,190,2012-12-07 08:53:00
4:53 AM,50.0,46.9,89,30.02,10.0,Calm,Calm,-,0.01,,Overcast,0,2012-12-07 09:53:00
5:53 AM,50.0,46.9,89,30.01,10.0,Variable,3.5,-,0.01,,Overcast,0,2012-12-07 10:53:00
6:53 AM,51.1,46.9,86,30.01,10.0,SSW,3.5,-,N/A,,Overcast,200,2012-12-07 11:53:00
7:53 AM,51.1,46.0,83,30.01,10.0,SSW,3.5,-,N/A,,Overcast,200,2012-12-07 12:53:00
8:53 AM,52.0,46.0,80,30.02,10.0,SSW,4.6,-,N/A,,Scattered Clouds,200,2012-12-07 13:53:00
9:53 AM,54.0,48.0,80,30.01,10.0,South,3.5,-,N/A,,Partly Cloudy,190,2012-12-07 14:53:00
10:53 AM,57.0,48.0,72,30.01,10.0,Calm,Calm,-,N/A,,Overcast,0,2012-12-07 15:53:00
11:53 AM,59.0,48.9,69,29.98,10.0,Variable,4.6,-,N/A,,Scattered Clouds,0,2012-12-07 16:53:00
12:53 PM,63.0,48.9,60,29.95,10.0,Variable,4.6,-,N/A,,Scattered Clouds,0,2012-12-07 17:53:00
1:53 PM,63.0,48.9,60,29.92,10.0,Variable,5.8,-,N/A,,Mostly Cloudy,0,2012-12-07 18:53:00
2:53 PM,62.1,48.9,62,29.91,10.0,Variable,5.8,-,N/A,,Overcast,0,2012-12-07 19:53:00
3:53 PM,62.1,48.0,60,29.91,10.0,Variable,5.8,-,N/A,,Overcast,0,2012-12-07 20:53:00
4:53 PM,60.1,48.0,64,29.91,10.0,Calm,Calm,-,N/A,,Partly Cloudy,0,2012-12-07 21:53:00
5:53 PM,60.1,48.0,64,29.90,10.0,Variable,4.6,-,N/A,,Overcast,0,2012-12-07 22:53:00
6:53 PM,57.9,46.9,67,29.91,10.0,Variable,3.5,-,N/A,,Scattered Clouds,0,2012-12-07 23:53:00
7:53 PM,57.2,46.4,67,29.92,10.0,Variable,3.5,-,N/A,,Partly Cloudy,0,2012-12-08 00:53:00
8:53 PM,57.0,46.9,69,29.91,10.0,South,3.5,-,N/A,,Overcast,190,2012-12-08 01:53:00
9:53 PM,57.0,46.9,69,29.91,10.0,SW,3.5,-,N/A,,Overcast,220,2012-12-08 02:53:00
10:53 PM,55.4,48.2,77,29.92,10.0,Variable,3.5,-,N/A,,Overcast,0,2012-12-08 03:53:00
11:22 PM,57.2,48.2,72,29.93,10.0,Variable,4.6,-,N/A,,Overcast,0,2012-12-08 04:22:00
11:32 PM,57.2,48.2,72,29.93,10.0,Variable,3.5,-,N/A,,Overcast,0,2012-12-08 04:32:00
11:43 PM,57.2,48.2,72,29.93,8.0,Variable,5.8,-,0.00,Rain,Light Rain,0,2012-12-08 04:43:00
11:53 PM,55.9,50.0,80,29.91,5.0,Variable,4.6,-,0.00,Rain,Light Rain,0,2012-12-08 04:53:00